Bega Observation History
Time Wind Speed Temp Pressure Rel. Hum Rain
04/07:30am NNE 2-4 kts 3.6°c 1033.2 hPa 88% 0.0mm
04/07:00am ENE 3-4 kts 3.1°c 1033.1 hPa 87% 0.0mm
04/06:30am SSW 3-5 kts 3.3°c 1032.9 hPa 79% 0.0mm
04/06:00am SSW 3-5 kts 3.5°c 1032.7 hPa 81% 0.0mm
04/05:30am WSW 5-7 kts 5.6°c 1032.2 hPa 73% 0.0mm
04/05:00am WSW 7-9 kts 8.0°c 1031.9 hPa 66% 0.0mm
04/04:30am W 7-9 kts 7.2°c 1031.8 hPa 73% 0.0mm
04/04:00am W 5-7 kts 5.9°c 1031.8 hPa 73% 0.0mm
04/03:30am W 7-9 kts 8.1°c 1031.7 hPa 67% 0.0mm
04/03:00am WSW 7-8 kts 8.3°c 1031.6 hPa 67% 0.0mm
04/02:30am W 6-9 kts 8.3°c 1031.7 hPa 67% 0.0mm
04/02:00am WSW 8-11 kts 9.5°c 1031.6 hPa 64% 0.0mm
04/01:30am W 6-9 kts 8.6°c 1031.6 hPa 68% 0.0mm
04/01:00am WSW 5-7 kts 8.0°c 1031.6 hPa 73% 0.0mm
04/12:30am WSW 4-6 kts 8.2°c 1031.6 hPa 70% 0.0mm
04/12:00am WSW 5-7 kts 9.4°c 1031.6 hPa 63% 0.0mm
Time Wind Speed Temp Pressure Rel. Hum Rain
03/11:30pm WSW 8-11 kts 10.5°c 1031.8 hPa 61% 0.0mm
03/11:00pm WSW 8-11 kts 10.3°c 1031.5 hPa 63% 0.0mm
03/10:30pm SW 6-8 kts 9.7°c 1031.3 hPa 70% 0.0mm
03/10:00pm WSW 3-5 kts 10.1°c 1031.3 hPa 70% 0.0mm
03/09:30pm WSW 1-3 kts 10.5°c 1031.1 hPa 68% 0.0mm
03/09:00pm SW 8-13 kts 11.0°c 1031.0 hPa 68% 0.0mm
03/08:30pm SW 7-11 kts 10.8°c 1030.7 hPa 68% 0.0mm
03/08:00pm SW 5-9 kts 10.0°c 1030.4 hPa 70% 0.0mm
03/07:30pm SW 6-9 kts 10.6°c 1030.0 hPa 72% 0.0mm
03/07:00pm SSW 6-8 kts 9.7°c 1029.7 hPa 75% 0.0mm
03/06:30pm SSW 6-7 kts 9.8°c 1029.1 hPa 75% 0.0mm
03/06:00pm SW 3-4 kts 10.1°c 1028.6 hPa 75% 0.0mm
03/05:30pm SSE 6-7 kts 10.6°c 1028.1 hPa 74% 0.0mm
03/05:00pm S 11-17 kts 11.6°c 1027.7 hPa 69% 0.0mm
03/04:30pm S 11-14 kts 12.5°c 1027.4 hPa 65% 0.0mm
03/04:00pm SSE 10-14 kts 13.2°c 1026.8 hPa 62% 0.0mm
03/03:30pm S 13-20 kts 13.9°c 1026.2 hPa 52% 0.0mm
03/03:00pm SSW 14-20 kts 14.1°c 1025.6 hPa 50% 0.0mm
03/02:30pm SSW 15-24 kts 15.5°c 1025.0 hPa 43% 0.0mm
03/02:00pm SW 16-29 kts 15.0°c 1024.8 hPa 48% 0.0mm
03/01:54pm SW 15-29 kts 14.4°c 1024.6 hPa 48% 0.0mm
03/01:30pm SW 15-23 kts 14.3°c 1024.6 hPa 50% 0.0mm
03/01:00pm SW 17-27 kts 14.0°c 1024.2 hPa 52% 0.0mm
03/12:31pm SSW 16-27 kts 14.4°c 1023.8 hPa 49% 0.0mm
03/12:30pm SSW 16-23 kts 14.5°c 1024.0 hPa 49% 0.0mm
03/12:00pm SW 15-24 kts 14.7°c 1023.7 hPa 50% 0.0mm
03/11:49am SSW 16-29 kts 14.4°c 1023.6 hPa 50% 0.0mm
03/11:30am SSW 12-20 kts 14.5°c 1023.6 hPa 50% 0.0mm
03/11:00am SW 15-21 kts 14.5°c 1023.4 hPa 48% 0.0mm
03/10:30am SW 12-17 kts 14.5°c 1023.2 hPa 47% 0.0mm
03/10:00am SW 9-12 kts 14.1°c 1023.0 hPa 47% 0.0mm
03/09:30am SW 11-15 kts 13.8°c 1022.7 hPa 48% 0.0mm
03/09:00am WSW 7-16 kts 13.1°c 1022.5 hPa 51% 0.0mm
03/08:30am WSW 6-12 kts 12.8°c 1022.0 hPa 54% 0.0mm
03/08:00am SW 7-13 kts 12.7°c 1021.2 hPa 54% 0.0mm
03/07:30am SW 8-13 kts 12.4°c 1020.8 hPa 53% 0.0mm
03/07:00am SW 11-18 kts 12.6°c 1020.1 hPa 53% 0.0mm
03/06:30am WSW 12-23 kts 12.6°c 1019.4 hPa 53% 0.0mm
03/06:21am WSW 15-28 kts 13.0°c 1019.1 hPa 51% 0.0mm
03/06:00am SW 14-24 kts 13.1°c 1018.4 hPa 51% 0.0mm
03/05:43am SW 15-34 kts 13.4°c 1017.6 hPa 50% 0.0mm
03/05:30am WSW 14-22 kts 13.3°c 1017.5 hPa 51% 0.0mm
03/05:00am WSW 14-25 kts 13.2°c 1017.5 hPa 55% 0.0mm
03/04:30am SW 15-25 kts 13.7°c 1017.1 hPa 55% 0.0mm
03/04:27am WSW 15-25 kts 13.6°c 1017.0 hPa 55% 0.0mm
03/04:00am WSW 11-22 kts 14.2°c 1016.2 hPa 51% 0.0mm
03/03:30am SW 9-13 kts 14.3°c 1015.9 hPa 48% 0.0mm
03/03:00am WSW 10-15 kts 14.2°c 1015.1 hPa 48% 0.0mm
03/02:30am WSW 10-16 kts 14.3°c 1015.0 hPa 48% 0.0mm
03/02:00am NNW 5-14 kts 10.5°c 1015.4 hPa 63% 0.0mm
03/01:30am WSW 7-17 kts 11.0°c 1015.3 hPa 63% 0.0mm
03/01:25am W 6-14 kts 9.9°c 1015.2 hPa 69% 0.0mm
03/01:00am SSW 4-6 kts 4.8°c 1015.6 hPa 83% 0.0mm
03/12:30am WSW 7-14 kts 4.7°c 1015.4 hPa 86% 0.0mm
03/12:00am S 2-5 kts 2.8°c 1015.3 hPa 93% 0.0mm
Time Wind Speed Temp Pressure Rel. Hum Rain
02/11:30pm CALM 0-4 kts 3.2°c 1015.5 hPa 89% 0.0mm
02/11:00pm CALM 0 kts 4.5°c 1015.9 hPa 90% 0.0mm
02/10:30pm S 3-5 kts 4.0°c 1015.9 hPa 90% 0.0mm
02/10:00pm CALM 0-3 kts 4.9°c 1015.5 hPa 87% 0.0mm
02/09:30pm CALM 0 kts 6.1°c 1015.8 hPa 85% 0.0mm
02/09:00pm SSE 1-3 kts 5.7°c 1015.9 hPa 82% 0.0mm
02/08:30pm NNE 1-4 kts 7.3°c 1015.9 hPa 79% 0.0mm
02/08:00pm CALM 0 kts 7.5°c 1015.7 hPa 76% 0.0mm
02/07:30pm S 3-5 kts 8.2°c 1015.4 hPa 76% 0.0mm
02/07:00pm CALM 0 kts 8.7°c 1015.0 hPa 70% 0.0mm
02/06:30pm NW 3-5 kts 11.6°c 1014.8 hPa 62% 0.0mm
02/06:00pm W 3-4 kts 12.8°c 1014.8 hPa 57% 0.0mm
02/05:30pm SW 4-5 kts 11.6°c 1015.0 hPa 58% 0.0mm
02/05:00pm W 5-7 kts 13.8°c 1014.8 hPa 52% 0.0mm
02/04:30pm WSW 6-9 kts 15.0°c 1014.5 hPa 48% 0.0mm
02/04:00pm SW 9-12 kts 16.2°c 1014.4 hPa 45% 0.0mm
02/03:30pm WSW 9-15 kts 16.5°c 1014.2 hPa 44% 0.0mm
02/03:00pm WSW 9-13 kts 16.5°c 1014.2 hPa 44% 0.0mm
02/02:30pm SW 12-19 kts 16.4°c 1013.9 hPa 45% 0.0mm
02/02:00pm WSW 13-18 kts 16.2°c 1013.9 hPa 44% 0.0mm
02/01:30pm WSW 14-21 kts 16.1°c 1014.0 hPa 43% 0.0mm
02/01:00pm WSW 11-18 kts 16.2°c 1014.1 hPa 42% 0.0mm
02/12:30pm SW 13-18 kts 15.9°c 1014.2 hPa 41% 0.0mm
02/12:00pm SW 12-19 kts 15.7°c 1014.5 hPa 40% 0.0mm
02/11:30am WSW 11-17 kts 15.3°c 1014.7 hPa 42% 0.0mm
02/11:00am SW 13-18 kts 14.4°c 1015.1 hPa 44% 0.0mm
02/10:30am WSW 12-18 kts 13.8°c 1015.3 hPa 47% 0.0mm
02/10:00am WSW 10-14 kts 13.4°c 1015.5 hPa 48% 0.0mm
02/09:30am WSW 12-17 kts 12.8°c 1015.4 hPa 50% 0.0mm
02/09:00am WSW 11-17 kts 12.0°c 1015.4 hPa 52% 0.0mm
02/08:30am WSW 12-21 kts 11.3°c 1015.2 hPa 54% 0.0mm
02/08:00am WSW 7-10 kts 10.5°c 1015.2 hPa 57% 0.0mm
02/07:30am WSW 8-18 kts 10.2°c 1015.0 hPa 58% 0.0mm
02/07:00am SW 12-17 kts 10.6°c 1014.5 hPa 59% 0.0mm
02/06:36am WSW 15-26 kts 11.2°c 1013.8 hPa 56% 0.0mm
02/06:30am SW 15-20 kts 11.3°c 1013.8 hPa 56% 0.0mm
02/06:00am WSW 10-14 kts 11.6°c 1013.3 hPa 59% 0.0mm
02/05:30am WSW 11-17 kts 11.7°c 1012.4 hPa 59% 0.0mm
02/05:00am SW 8-11 kts 11.3°c 1012.1 hPa 61% 0.0mm
02/04:30am WSW 11-16 kts 11.6°c 1011.6 hPa 60% 0.0mm
02/04:00am WSW 14-22 kts 11.8°c 1011.4 hPa 60% 0.0mm
02/03:30am WSW 9-13 kts 11.2°c 1011.4 hPa 59% 0.0mm
02/03:00am WSW 11-15 kts 12.0°c 1011.3 hPa 55% 0.0mm
02/02:30am SW 14-22 kts 11.9°c 1011.0 hPa 54% 0.0mm
02/02:00am WSW 8-13 kts 12.6°c 1010.7 hPa 49% 0.0mm
02/01:30am WSW 7-11 kts 12.7°c 1010.8 hPa 49% 0.0mm
02/01:00am WSW 11-18 kts 12.8°c 1010.6 hPa 49% 0.0mm
02/12:30am WSW 8-11 kts 12.5°c 1010.6 hPa 50% 0.0mm
02/12:00am SW 6-10 kts 12.0°c 1010.6 hPa 51% 0.0mm